Astron

operational
NORAD ID: 13901 Int'l Des: 1983-020 Owner: IKI/BABTS Country: SU
HEOELLIPTICALHEO_ELLIPTICAL

About Astron

Description loading...

Live Position

Loading 3D Globe...

Upcoming Passes

Altitude History

Altitude vs Time

uPlot chart will show altitude changes over time

Two-Line Element Set

1 13901U 83020A 26063.97263068 -.00000063 00000-0 00000+0 0 9994
2 13901 78.5090 58.5776 6499000 50.0096 0.3364 0.24300133 10891
Epoch: Mar 4, 2026 • Age: 5 hours

Current Status

Altitude 115571.6 km
Velocity 1.69 km/s
Sub-Earth Point -77.77°S, 93.63°E
Launch Date Mar 23, 1983
Age 42.9 years
Type other

Technical Details

Classification Payload
Mass 3500.00 kg
Dry Mass 3500.00 kg
Total Mass 3500.00 kg
Length 6.00 m
Diameter 2.50 m
Span 9.00 m
Shape Flared Cyl + 2 Pan
Manufacturer NPOL
Bus Type 3M
Phase Status Deep Space
Owner/State IKI/BABTS/SU

Large Constellations

Loading constellations...